[[{"header":{"parameterUnit":"m.s-1","parameterCategory":1,"la1":30.2991,"la2":30.254,"lo1":-89.0895,"lo2":-89.0444,"dy":0.0017,"dx":0.0017,"nx":28,"ny":28,"refTime":"2024-08-08T03:00:00:Z","depth":0,"parameterNumber":2,"parameterNumberName":"U-component_of_WINDS"},"data":[0,0,0,0,0,0,0,0,0,0,0,0,0,0,0,0,0,0,0,0,0,0,0,0,0,0,0,0,0,0,0,0,0,0,0,0,0,0,0,0,0,0,0,0,0,0,0,0,0,0,0,0,0,0,0,0,0,0,1.8932,1.8932,0,1.9008,1.9009,1.901,1.9006,1.9005,1.9004,1.9003,1.9087,1.909,1.9093,0,0,0,0,0,0,0,0,0,0,0,0,0,1.8789,1.8792,1.8932,1.8933,1.8934,1.9008,1.9009,1.901,1.9007,1.9005,1.9004,1.9003,1.9085,1.9089,1.9093,0,0,0,0,0,0,0,0,0,0,0,0,0,1.8857,1.8793,1.8931,1.8941,1.8942,1.9008,1.9009,1.901,1.9007,1.9005,1.9004,1.9002,1.9084,1.9089,1.9094,1.9156,0,0,1.9108,1.9111,0,0,0,0,0,0,0,0,1.8853,1.8862,1.8938,1.894,1.8942,1.8996,1.8989,1.9059,1.9007,1.8983,1.9003,1.9001,1.9058,1.9065,1.9083,1.916,1.9164,1.9109,1.9112,1.9114,1.9115,0,0,0,0,0,0,0,1.8849,1.8859,1.8962,1.894,1.8942,1.8943,1.8951,1.9002,1.9029,1.8985,1.8985,1.8993,1.9059,1.9078,1.9085,1.9165,1.9109,1.9113,1.9116,1.9118,1.9301,1.9302,0,0,0,0,0,0,1.8841,1.8855,1.896,1.8964,1.8893,1.8947,1.8956,1.898,1.9028,1.9034,1.8995,1.8993,1.9071,1.9079,1.9088,1.9166,1.9114,1.9118,1.9121,1.9299,1.9301,1.9303,0,0,0,0,0,0,1.8838,1.885,1.8956,1.891,1.8923,1.8951,1.8979,1.8983,1.9002,1.9036,1.9041,1.9009,1.907,1.9081,1.914,1.9169,1.9121,1.9125,1.9296,1.9299,1.9302,1.9323,0,0,0,0,0,0,1.8834,1.8849,1.8872,1.891,1.8926,1.9005,1.8981,1.8985,1.901,1.9008,1.9051,1.9056,1.9069,1.9132,1.9144,1.9175,1.9129,1.9294,1.9298,1.9301,1.9319,1.9326,1.9331,0,0,0,0,0,1.8829,1.8875,1.8873,1.8886,1.8954,1.9007,1.9016,1.9028,1.9012,1.9036,1.9058,1.9055,1.9164,1.9138,1.9152,1.9184,1.9292,1.9297,1.9301,1.9317,1.9325,1.9331,0,0,0,0,0,0,1.8841,1.888,1.8878,1.8938,1.8969,1.9006,1.9037,1.9036,1.9073,1.9071,1.9086,1.9096,1.9155,1.9175,1.9147,1.9249,1.9226,1.9233,1.9234,1.9241,1.9247,1.9242,1.9133,0,0,0,0,0,1.885,1.8887,1.8921,1.897,1.8986,1.9008,1.9032,1.9039,1.9072,1.9086,1.9112,1.9146,1.9188,1.9216,1.9256,1.9322,1.9333,1.9351,1.9357,1.9362,1.9369,1.9408,1.9417,1.9317,1.9317,1.9317,0,0,1.887,1.8896,1.8919,1.8973,1.8998,1.9039,1.902,1.9063,1.9094,1.9093,1.915,1.917,1.921,1.9273,1.9302,1.9292,1.9399,1.9367,1.9371,1.9375,1.9413,1.9423,1.9431,1.932,1.932,1.9319,0,0,1.8928,1.895,1.8995,1.902,1.9058,1.9073,1.9084,1.9122,1.9135,1.9192,1.9193,1.9231,1.9302,1.9331,1.9355,1.9425,1.9425,1.9438,1.947,1.9508,1.9516,1.9523,1.9551,1.956,1.9444,1.9445,1.9445,0,1.8949,1.9008,1.9019,1.9063,1.9088,1.9087,1.9134,1.9159,1.9208,1.9227,1.9214,1.9305,1.9331,1.9402,1.942,1.9438,1.9453,1.9434,1.9514,1.9521,1.9528,1.9555,1.9565,1.9446,1.9446,1.9446,1.9446,0,1.9033,1.9075,1.9107,1.9154,1.9182,1.9228,1.9247,1.9275,1.928,1.9297,1.9357,1.9389,1.9437,1.9454,1.9459,1.9527,1.952,1.951,1.9488,1.9539,1.9564,1.9574,1.9448,1.9448,1.9447,1.9447,0,0,1.9101,1.9153,1.9165,1.9187,1.9229,1.9263,1.931,1.9355,1.938,1.9415,1.9456,1.9517,1.9509,1.9536,1.9545,1.9578,1.9635,1.9565,1.9566,1.9579,1.9715,1.9723,1.9735,1.9635,1.9637,1.9638,1.9713,0,1.9165,1.9245,1.9257,1.933,1.937,1.9371,1.9412,1.9443,1.9461,1.9499,1.952,1.9564,1.9548,1.9565,1.9598,1.9621,1.9663,1.9616,1.9676,1.9678,1.9668,1.9748,1.9756,1.9825,1.9722,1.9724,1.9725,0,1.925,1.9286,1.9362,1.9401,1.9418,1.9455,1.9499,1.9534,1.9571,1.9582,1.9613,1.9618,1.9669,1.9644,1.9716,1.9683,1.9709,1.9724,1.9727,1.9735,1.9706,1.976,1.9847,1.9858,1.974,1.9739,1.9738,0,1.9295,1.9363,1.9418,1.9436,1.9482,1.9508,1.9529,1.9563,1.9591,1.963,1.9648,1.9693,1.9718,1.9754,1.9772,1.9751,1.9844,1.9819,1.9857,1.9857,1.9878,1.9877,1.9973,1.9891,1.9891,1.989,1.989,0,1.9366,1.9414,1.9438,1.9473,1.9527,1.954,1.9594,1.9614,1.9645,1.9685,1.9689,1.9726,1.9747,1.9789,1.9803,1.9863,1.9873,1.9886,1.9889,1.9886,1.9885,1.9905,1.9901,1.9893,1.9892,1.9892,1.9891,0,1.9426,1.9444,1.9505,1.9543,1.9554,1.9592,1.9626,1.966,1.9678,1.9728,1.9741,1.977,1.9819,1.984,1.9901,1.9911,1.9979,1.9978,1.9967,1.9968,2.0006,2.0003,2.0119,2.0136,2.0041,2.0042,2.0043,0,1.9471,1.9508,1.955,1.9576,1.9597,1.9639,1.9667,1.9683,1.9712,1.9758,1.9788,1.9836,1.9877,1.9956,1.9983,2.0031,2.0032,2.007,2.004,2.0036,2.0036,2.0034,2.0039,2.0076,2.0077,2.0078,2.0078,0,1.9551,1.9558,1.9597,1.9641,1.9674,1.9709,1.9743,1.9765,1.9786,1.9819,1.9869,1.99,1.9962,2.0012,2.0061,2.0085,2.0087,2.0087,2.0099,2.0098,2.009,2.0097,1.9984,2.0085,2.0084,2.0084,2.0084,2.0083,1.9607,1.964,1.9675,1.9719,1.9747,1.9779,1.9814,1.9836,1.9877,1.9928,1.9935,1.9989,2.0027,2.0093,2.0119,2.0163,2.0154,2.017,2.0175,2.0179,2.0183,2.0081,2.0172,2.0171,2.0171,2.0171,2.0171,0,1.9688,1.9711,1.9751,1.9799,1.9835,1.9831,1.9869,1.99,1.9947,1.9982,2.0021,2.008,2.0128,2.016,2.0209,2.0239,2.0241,2.0252,2.0251,2.0257,2.0186,2.0172,2.0249,2.0249,2.0249,2.0249,2.0249,2.0249,1.9735,1.9792,1.9804,1.9876,1.9898,1.995,1.9973,2.0004,2.0032,2.0097,2.0136,2.0156,2.019,2.0243,2.0288,2.0296,2.0316,2.0327,2.0335,2.0269,2.0261,2.0254,2.0241,2.033,2.0331,2.0402,2.0403,2.0403]},{"header":{"parameterUnit":"m.s-1","parameterCategory":1,"la1":30.2991,"la2":30.254,"lo1":-89.0895,"lo2":-89.0444,"dy":0.0017,"dx":0.0017,"nx":28,"ny":28,"refTime":"2024-08-08T03:00:00:Z","depth":0,"parameterNumber":3,"parameterNumberName":"V-component_of_WINDS"},"data":[0,0,0,0,0,0,0,0,0,0,0,0,0,0,0,0,0,0,0,0,0,0,0,0,0,0,0,0,0,0,0,0,0,0,0,0,0,0,0,0,0,0,0,0,0,0,0,0,0,0,0,0,0,0,0,0,0,0,0.9963,0.9964,0,1.0111,1.0113,1.0115,1.0024,1.002,1.0015,1.0011,1.0162,1.017,1.0178,0,0,0,0,0,0,0,0,0,0,0,0,0,0.9597,0.9605,0.9963,0.9964,0.9966,1.0111,1.0113,1.0115,1.0025,1.002,1.0014,1.0009,1.016,1.0169,1.0179,0,0,0,0,0,0,0,0,0,0,0,0,0,0.9752,0.9607,0.9962,0.9939,0.9938,1.0111,1.0113,1.0116,1.0026,1.0019,1.0013,1.0007,1.0156,1.0168,1.018,1.0384,0,0,1.0217,1.0222,0,0,0,0,0,0,0,0,0.9743,0.9766,0.994,0.9941,0.994,1.0043,1.004,1.0206,1.0028,0.9993,1.0011,1.0004,1.0128,1.0142,1.0184,1.0391,1.0397,1.0218,1.0225,1.023,1.0234,0,0,0,0,0,0,0,0.9733,0.9759,1.0021,0.9943,0.9943,0.992,0.9935,1.0071,1.0094,0.9995,0.9989,1.0008,1.0126,1.0172,1.0186,1.0399,1.0218,1.0228,1.0236,1.024,1.0778,1.0785,0,0,0,0,0,0,0.9724,0.975,1.0017,1.0026,0.9824,0.9932,0.9948,1.0016,1.0093,1.0098,1.0013,1.0003,1.0155,1.0173,1.0191,1.0433,1.023,1.0242,1.0249,1.0771,1.078,1.0787,0,0,0,0,0,0,0.9717,0.9749,1.0011,0.9886,0.9918,0.9945,1.0022,1.0023,1.0068,1.0106,1.011,1.0056,1.015,1.0174,1.0336,1.0437,1.0247,1.0258,1.0763,1.0774,1.0784,1.092,0,0,0,0,0,0,0.9707,0.9747,0.9825,0.9889,0.9925,1.0154,1.0028,1.003,1.009,1.0078,1.0147,1.0153,1.0147,1.0319,1.0348,1.045,1.0267,1.0754,1.0768,1.078,1.0907,1.0934,1.0957,0,0,0,0,0,0.9694,0.9858,0.983,0.9862,1.0024,1.016,1.0181,1.0172,1.0098,1.0177,1.0201,1.0151,1.0421,1.0336,1.0368,1.0476,1.0748,1.0764,1.0779,1.0895,1.0929,1.0957,0,0,0,0,0,0,0.9806,0.9866,0.9835,1.0025,1.0088,1.0145,1.0244,1.0208,1.0293,1.0278,1.0262,1.0278,1.0447,1.0477,1.0381,1.0676,1.0573,1.0596,1.065,1.0682,1.0707,1.0696,1.0277,0,0,0,0,0,0.9852,0.9959,1.0005,1.0168,1.0202,1.0218,1.0277,1.0264,1.0328,1.0354,1.039,1.0454,1.0553,1.0619,1.0713,1.091,1.0923,1.1,1.1025,1.1046,1.1066,1.117,1.1205,1.084,1.0839,1.0839,0,0,0.995,0.9996,1.0064,1.0192,1.0239,1.0349,1.0241,1.0362,1.0442,1.0373,1.0527,1.0556,1.0626,1.0806,1.0887,1.0836,1.1169,1.1066,1.1082,1.1091,1.119,1.1225,1.1256,1.085,1.0848,1.0847,0,0,1.0184,1.023,1.037,1.0419,1.0492,1.0502,1.0535,1.0597,1.0613,1.0768,1.0718,1.0812,1.0984,1.1036,1.1085,1.1335,1.1292,1.1366,1.1499,1.1601,1.163,1.1655,1.1743,1.1775,1.1386,1.1386,1.1387,0,1.0296,1.046,1.0446,1.0571,1.0628,1.0569,1.071,1.0758,1.0858,1.0898,1.084,1.1053,1.1096,1.1286,1.1347,1.1389,1.1426,1.1358,1.1627,1.1652,1.1676,1.1759,1.1793,1.1395,1.1394,1.1393,1.1392,0,1.0593,1.0707,1.0811,1.0909,1.0977,1.111,1.1115,1.1185,1.1166,1.1181,1.1338,1.1387,1.1489,1.1533,1.1516,1.1721,1.1687,1.1629,1.1525,1.1719,1.1797,1.183,1.1407,1.1404,1.1402,1.1399,0,0,1.0903,1.099,1.1029,1.1071,1.1147,1.1234,1.1362,1.1462,1.1522,1.1592,1.1698,1.1844,1.179,1.1845,1.1832,1.1922,1.2115,1.1852,1.1853,1.1898,1.2342,1.2385,1.2423,1.2087,1.2093,1.2098,1.2336,0,1.114,1.1365,1.1356,1.1566,1.167,1.1615,1.1726,1.1784,1.1801,1.189,1.1908,1.2011,1.1933,1.1965,1.2052,1.2074,1.2204,1.2057,1.2184,1.2189,1.2168,1.2464,1.2511,1.2733,1.2366,1.2372,1.2375,0,1.1448,1.1528,1.1749,1.1806,1.185,1.1951,1.204,1.2127,1.219,1.2195,1.2256,1.2229,1.2357,1.2249,1.2425,1.2324,1.2376,1.2394,1.2402,1.2414,1.2294,1.2482,1.2804,1.2837,1.2424,1.242,1.2416,0,1.1651,1.1814,1.1966,1.2004,1.2076,1.2148,1.2181,1.2237,1.2297,1.2375,1.2413,1.2504,1.2554,1.2625,1.2622,1.2544,1.2799,1.2692,1.2806,1.2806,1.2862,1.2859,1.3196,1.2897,1.2896,1.2895,1.2895,0,1.1917,1.2053,1.2058,1.2151,1.2302,1.2289,1.2438,1.2463,1.2514,1.261,1.2568,1.2659,1.265,1.2741,1.274,1.2884,1.2907,1.2914,1.2912,1.2918,1.2917,1.2951,1.2935,1.2904,1.2902,1.2901,1.2899,0,1.2168,1.2177,1.2339,1.2393,1.241,1.2519,1.2564,1.2652,1.2664,1.2787,1.2815,1.2834,1.2939,1.2943,1.3064,1.3062,1.3238,1.3219,1.3217,1.3213,1.3326,1.3315,1.3697,1.3745,1.3416,1.3419,1.3421,0,1.2338,1.2441,1.2506,1.2568,1.2605,1.2705,1.2766,1.2756,1.282,1.2899,1.2977,1.3078,1.3159,1.3329,1.3353,1.3444,1.3427,1.3554,1.344,1.3442,1.3427,1.3421,1.343,1.3576,1.358,1.3583,1.3585,0,1.2636,1.2635,1.2724,1.2815,1.2888,1.2959,1.3024,1.3077,1.3074,1.3149,1.3256,1.3318,1.3441,1.3541,1.363,1.3662,1.3623,1.3621,1.3652,1.3659,1.3653,1.3656,1.3277,1.3612,1.3609,1.3607,1.3606,1.3605,1.2851,1.294,1.2999,1.3099,1.3147,1.3209,1.3294,1.3316,1.3406,1.3505,1.3494,1.3612,1.367,1.3785,1.3825,1.3916,1.3872,1.3917,1.3929,1.394,1.3952,1.3639,1.3932,1.3931,1.3931,1.393,1.393,0,1.3147,1.3182,1.3274,1.3367,1.3445,1.3402,1.3471,1.3539,1.3644,1.3702,1.3782,1.3904,1.4,1.4031,1.4124,1.4191,1.4176,1.4216,1.4211,1.4218,1.3986,1.395,1.4227,1.4227,1.4227,1.4227,1.4227,1.4227,1.331,1.3457,1.3463,1.3633,1.3666,1.3783,1.3826,1.3882,1.3927,1.4066,1.4146,1.4165,1.4212,1.4307,1.4393,1.4399,1.4435,1.4483,1.4482,1.4265,1.4235,1.4206,1.4172,1.4491,1.4491,1.4706,1.4708,1.4709]}]]